• Em Portugal
  • Lista de países
  • Para 7 dias
  • Temperatura da água
  • Mapas de satélite
  • Mapa do tempo
  • Widgets de tempo
  • user-avatar
    Iniciar Sessão

    Previsão horária em Gwatemala

    Hoje, 19 Junho, Terça-feira

    Tempo Temperatura Precipitação Vento Pressão Humidade
    00:00 +18°C° 0 mm 1 m/s 638 mmHg 92%
    01:00 +18°C° 0,3 mm 1 m/s 638 mmHg 92%
    02:00 +18°C° 0,3 mm 1 m/s 637 mmHg 91%
    03:00 +18°C° 0,3 mm 1 m/s 637 mmHg 91%
    04:00 +18°C° 0 mm 1 m/s 637 mmHg 90%
    05:00 +18°C° 0 mm 1 m/s 637 mmHg 89%
    06:00 +16°C° 0 mm 1 m/s 637 mmHg 88%
    07:00 +20°C° 0 mm 1 m/s 638 mmHg 80%
    08:00 +21°C° 0 mm 0 m/s 639 mmHg 72%
    09:00 +24°C° 0 mm 0 m/s 640 mmHg 64%
    10:00 +24°C° 0,2 mm 0 m/s 640 mmHg 62%
    11:00 +27°C° 0,2 mm 1 m/s 640 mmHg 61%
    12:00 +27°C° 0,2 mm 1 m/s 640 mmHg 60%
    13:00 +27°C° 1,1 mm 1 m/s 639 mmHg 63%
    14:00 +27°C° 1,1 mm 1 m/s 639 mmHg 66%
    15:00 +26°C° 1,1 mm 2 m/s 638 mmHg 69%
    16:00 +25°C° 1,4 mm 1 m/s 638 mmHg 74%
    17:00 +23°C° 1,4 mm 1 m/s 637 mmHg 79%
    18:00 +22°C° 1,4 mm 1 m/s 637 mmHg 84%
    19:00 +19°C° 0,8 mm 0 m/s 637 mmHg 86%
    20:00 +18°C° 0,8 mm 0 m/s 637 mmHg 88%
    21:00 +17°C° 0,8 mm 0 m/s 637 mmHg 91%
    22:00 +17°C° 0,3 mm 0 m/s 637 mmHg 91%
    23:00 +16°C° 0,3 mm 0 m/s 637 mmHg 92%

    Amanhã, 20 Junho, Quarta-feira

    Tempo Temperatura Precipitação Vento Pressão Humidade
    00:00 +16°C° 0,3 mm 0 m/s 637 mmHg 92%
    01:00 +16°C° 0,1 mm 0 m/s 637 mmHg 93%
    02:00 +16°C° 0,1 mm 0 m/s 637 mmHg 93%
    03:00 +15°C° 0,1 mm 0 m/s 636 mmHg 93%
    04:00 +16°C° 0 mm 1 m/s 636 mmHg 93%
    05:00 +18°C° 0 mm 1 m/s 636 mmHg 93%
    06:00 +18°C° 0 mm 1 m/s 637 mmHg 93%
    07:00 +20°C° 0 mm 1 m/s 637 mmHg 86%
    08:00 +22°C° 0 mm 1 m/s 638 mmHg 79%
    09:00 +24°C° 0 mm 1 m/s 639 mmHg 71%
    10:00 +25°C° 0,3 mm 1 m/s 639 mmHg 70%
    11:00 +25°C° 0,3 mm 1 m/s 639 mmHg 68%
    12:00 +26°C° 0,3 mm 2 m/s 639 mmHg 66%
    13:00 +26°C° 0,7 mm 2 m/s 638 mmHg 68%
    14:00 +25°C° 0,7 mm 2 m/s 638 mmHg 70%
    15:00 +25°C° 0,7 mm 2 m/s 637 mmHg 71%
    16:00 +24°C° 0,6 mm 2 m/s 637 mmHg 76%
    17:00 +23°C° 0,6 mm 1 m/s 637 mmHg 80%
    18:00 +22°C° 0,6 mm 1 m/s 636 mmHg 85%
    19:00 +21°C° 0,4 mm 1 m/s 637 mmHg 87%
    20:00 +20°C° 0,4 mm 1 m/s 637 mmHg 90%
    21:00 +19°C° 0,4 mm 1 m/s 637 mmHg 92%
    22:00 +19°C° 0,6 mm 1 m/s 637 mmHg 93%
    23:00 +18°C° 0,6 mm 1 m/s 637 mmHg 93%

    Depois de amanhã, 21 Junho, Quinta-feira

    Tempo Temperatura Precipitação Vento Pressão Humidade
    00:00 +16°C° 0,6 mm 0 m/s 637 mmHg 94%
    01:00 +18°C° 0 mm 1 m/s 637 mmHg 94%
    02:00 +18°C° 0 mm 1 m/s 636 mmHg 93%
    03:00 +16°C° 0 mm 1 m/s 636 mmHg 93%
    04:00 +16°C° 0 mm 1 m/s 636 mmHg 92%
    05:00 +16°C° 0 mm 1 m/s 636 mmHg 92%
    06:00 +15°C° 0 mm 0 m/s 636 mmHg 91%
    07:00 +19°C° 0,1 mm 1 m/s 637 mmHg 84%
    08:00 +21°C° 0,1 mm 1 m/s 638 mmHg 77%
    09:00 +23°C° 0,1 mm 1 m/s 639 mmHg 69%
    10:00 +24°C° 0,2 mm 1 m/s 639 mmHg 65%
    11:00 +25°C° 0,2 mm 1 m/s 639 mmHg 61%
    12:00 +26°C° 0,2 mm 2 m/s 640 mmHg 57%
    13:00 +26°C° 0,7 mm 2 m/s 639 mmHg 61%
    14:00 +25°C° 0,7 mm 2 m/s 638 mmHg 65%
    15:00 +25°C° 0,7 mm 2 m/s 638 mmHg 68%
    16:00 +24°C° 0,9 mm 1 m/s 637 mmHg 74%
    17:00 +22°C° 0,9 mm 1 m/s 637 mmHg 79%
    18:00 +21°C° 0,9 mm 1 m/s 637 mmHg 84%
    19:00 +20°C° 1,4 mm 1 m/s 637 mmHg 86%
    20:00 +18°C° 1,4 mm 0 m/s 637 mmHg 88%
    21:00 +17°C° 1,4 mm 0 m/s 638 mmHg 89%
    22:00 +17°C° 0,7 mm 0 m/s 638 mmHg 89%
    23:00 +16°C° 0,7 mm 0 m/s 638 mmHg 90%

    22 Junho, Sexta-feira

    Tempo Temperatura Precipitação Vento Pressão Humidade
    00:00 +18°C° 0,7 mm 1 m/s 637 mmHg 90%
    01:00 +18°C° 0,5 mm 1 m/s 637 mmHg 90%
    02:00 +18°C° 0,5 mm 1 m/s 637 mmHg 89%
    03:00 +18°C° 0,5 mm 1 m/s 636 mmHg 89%
    04:00 +16°C° 0,2 mm 1 m/s 636 mmHg 89%
    05:00 +16°C° 0,2 mm 1 m/s 636 mmHg 88%
    06:00 +16°C° 0,2 mm 1 m/s 637 mmHg 88%
    07:00 +19°C° 0,1 mm 1 m/s 637 mmHg 82%
    08:00 +19°C° 0,1 mm 0 m/s 638 mmHg 77%
    09:00 +21°C° 0,1 mm 0 m/s 639 mmHg 71%
    10:00 +22°C° 0,2 mm 0 m/s 639 mmHg 68%
    11:00 +25°C° 0,2 mm 1 m/s 640 mmHg 64%
    12:00 +26°C° 0,2 mm 1 m/s 640 mmHg 60%
    13:00 +26°C° 1,1 mm 1 m/s 639 mmHg 64%
    14:00 +25°C° 1,1 mm 1 m/s 638 mmHg 68%
    15:00 +24°C° 1,1 mm 1 m/s 638 mmHg 72%
    16:00 +23°C° 1,3 mm 1 m/s 637 mmHg 77%
    17:00 +22°C° 1,3 mm 1 m/s 637 mmHg 81%
    18:00 +19°C° 1,3 mm 0 m/s 637 mmHg 86%
    19:00 +18°C° 0,9 mm 0 m/s 637 mmHg 88%
    20:00 +17°C° 0,9 mm 0 m/s 637 mmHg 89%
    21:00 +19°C° 0,9 mm 1 m/s 637 mmHg 91%
    22:00 +16°C° 0,7 mm 0 m/s 637 mmHg 91%
    23:00 +16°C° 0,7 mm 0 m/s 637 mmHg 92%

    23 Junho, Sábado

    Tempo Temperatura Precipitação Vento Pressão Humidade
    00:00 +16°C° 0,7 mm 0 m/s 637 mmHg 93%
    01:00 +16°C° 0,3 mm 0 m/s 637 mmHg 92%
    02:00 +16°C° 0,3 mm 1 m/s 637 mmHg 92%
    03:00 +16°C° 0,3 mm 1 m/s 636 mmHg 92%
    04:00 +16°C° 0,2 mm 1 m/s 636 mmHg 92%
    05:00 +16°C° 0,2 mm 1 m/s 637 mmHg 91%
    06:00 +16°C° 0,2 mm 1 m/s 637 mmHg 91%
    07:00 +17°C° 0,2 mm 0 m/s 638 mmHg 86%
    08:00 +19°C° 0,2 mm 0 m/s 638 mmHg 80%
    09:00 +21°C° 0,2 mm 0 m/s 639 mmHg 75%
    10:00 +22°C° 0,7 mm 0 m/s 639 mmHg 74%
    11:00 +24°C° 0,7 mm 1 m/s 639 mmHg 72%
    12:00 +25°C° 0,7 mm 1 m/s 639 mmHg 71%
    13:00 +25°C° 1,1 mm 1 m/s 638 mmHg 73%
    14:00 +24°C° 1,1 mm 1 m/s 637 mmHg 75%
    15:00 +24°C° 1,1 mm 1 m/s 637 mmHg 76%
    16:00 +23°C° 1,7 mm 1 m/s 637 mmHg 81%
    17:00 +22°C° 1,7 mm 1 m/s 636 mmHg 85%
    18:00 +21°C° 1,7 mm 1 m/s 636 mmHg 89%
    19:00 +20°C° 2,4 mm 1 m/s 637 mmHg 90%
    20:00 +18°C° 2,4 mm 0 m/s 637 mmHg 92%
    21:00 +17°C° 2,4 mm 0 m/s 637 mmHg 93%
    22:00 +17°C° 1 mm 0 m/s 637 mmHg 93%
    23:00 +16°C° 1 mm 0 m/s 637 mmHg 93%

    24 Junho, Domingo

    Tempo Temperatura Precipitação Vento Pressão Humidade
    00:00 +16°C° 1 mm 0 m/s 637 mmHg 93%
    01:00 +18°C° 0,3 mm 1 m/s 637 mmHg 93%
    02:00 +18°C° 0,3 mm 1 m/s 636 mmHg 93%
    03:00 +18°C° 0,3 mm 1 m/s 636 mmHg 92%
    04:00 +18°C° 0,4 mm 1 m/s 636 mmHg 92%
    05:00 +16°C° 0,4 mm 1 m/s 636 mmHg 92%
    06:00 +16°C° 0,4 mm 1 m/s 636 mmHg 91%
    07:00 +19°C° 0,4 mm 1 m/s 637 mmHg 87%
    08:00 +20°C° 0,4 mm 1 m/s 638 mmHg 84%
    09:00 +20°C° 0,4 mm 0 m/s 639 mmHg 80%
    10:00 +23°C° 0,5 mm 1 m/s 638 mmHg 77%
    11:00 +24°C° 0,5 mm 1 m/s 638 mmHg 73%
    12:00 +25°C° 0,5 mm 1 m/s 638 mmHg 70%
    13:00 +25°C° 0,9 mm 1 m/s 638 mmHg 71%
    14:00 +24°C° 0,9 mm 1 m/s 637 mmHg 72%
    15:00 +24°C° 0,9 mm 1 m/s 637 mmHg 73%
    16:00 +24°C° 1,2 mm 1 m/s 637 mmHg 77%
    17:00 +23°C° 1,2 mm 1 m/s 637 mmHg 81%
    18:00 +22°C° 1,2 mm 1 m/s 637 mmHg 85%
    19:00 +21°C° 1,6 mm 1 m/s 637 mmHg 88%
    20:00 +18°C° 1,6 mm 0 m/s 637 mmHg 90%
    21:00 +17°C° 1,6 mm 0 m/s 637 mmHg 93%
    22:00 +17°C° 1,1 mm 0 m/s 637 mmHg 93%
    23:00 +18°C° 1,1 mm 1 m/s 637 mmHg 93%
    Mostrar mais